This is the latest recevied weather packets stored in our database for station/object WA0LM. If no packets are shown the sender has not sent any weather packets the latest 10 day(s).
| Time | Temp. | Humidity | Pressure | Rain* | Wind** | Luminosity | Snow |
|---|---|---|---|---|---|---|---|
| 1777832136 | 16.11° C | 37% | 1006.1 hPa | 0 mm | - | 758 W/m² | - |
| 1777831832 | 15.56° C | 37% | 1006.5 hPa | 0 mm | - | 791 W/m² | - |
| 1777831529 | 15.56° C | 36% | 1006.6 hPa | 0 mm | - | 760 W/m² | - |
| 1777831227 | 16.11° C | 38% | 1006.2 hPa | 0 mm | - | 682 W/m² | - |
| 1777830924 | 15.56° C | 36% | 1006.5 hPa | 0 mm | - | 527 W/m² | - |
| 1777830621 | 15.56° C | 38% | 1006.5 hPa | 0 mm | - | 606 W/m² | - |
| 1777830318 | 15.56° C | 35% | 1006.6 hPa | 0 mm | - | 784 W/m² | - |
| 1777830014 | 15.56° C | 36% | 1006.6 hPa | 0 mm | - | 781 W/m² | - |
| 1777829709 | 15.56° C | 38% | 1006.7 hPa | 0 mm | - | 779 W/m² | - |
| 1777829406 | 15.56° C | 40% | 1006.5 hPa | 0 mm | - | 776 W/m² | - |
| 1777829104 | 15.56° C | 35% | 1006.6 hPa | 0 mm | - | 773 W/m² | - |
| 1777828800 | 15.56° C | 36% | 1006.8 hPa | 0 mm | - | 772 W/m² | - |
| 1777828497 | 15.56° C | 40% | 1006.7 hPa | 0 mm | - | 768 W/m² | - |
| 1777828194 | 15.56° C | 36% | 1006.6 hPa | 0 mm | - | 763 W/m² | - |
| 1777827890 | 15.56° C | 38% | 1006.9 hPa | 0 mm | - | 759 W/m² | - |
| 1777827588 | 15.56° C | 36% | 1007.1 hPa | 0 mm | - | 754 W/m² | - |
| 1777827285 | 15.56° C | 40% | 1006.8 hPa | 0 mm | - | 747 W/m² | - |
| 1777826981 | 15.56° C | 35% | 1006.8 hPa | 0 mm | - | 741 W/m² | - |
| 1777826679 | 15.56° C | 35% | 1006.8 hPa | 0 mm | - | 734 W/m² | - |
| 1777826375 | 15.56° C | 34% | 1006.8 hPa | 0 mm | - | 731 W/m² | - |
| 1777826072 | 15.56° C | 35% | 1006.7 hPa | 0 mm | - | 724 W/m² | - |
| 1777825769 | 15° C | 40% | 1006.8 hPa | 0 mm | - | 717 W/m² | - |
| 1777825467 | 15° C | 32% | 1006.7 hPa | 0 mm | - | 709 W/m² | - |
| 1777825164 | 15° C | 37% | 1007.1 hPa | 0 mm | - | 701 W/m² | - |
| 1777824860 | 15.56° C | 36% | 1007.1 hPa | 0 mm | - | 694 W/m² | - |
* Rain latest hour (hover to see other rain measurements)
** Current wind speed in m/s (hover to see current wind gust speed)